Wind_Speed
51 51 48 46 43 41 37 34 30 29 28 28 26 25 24 23 22 23 22 19 16 14 15 16 16 17 18 16 16 16 13 12 11 10 11 10 12 10
54 52 50 48 46 43 39 37 33 33 31 30 30 28 27 25 24 24 25 23 20 18 18 17 17 18 19 20 20 19 17 16 14 13 13 11 12 12
58 54 51 50 48 46 42 40 37 36 35 33 33 31 29 28 26 26 26 25 23 23 22 22 22 23 23 23 23 22 21 19 19 17 16 15 14 15
61 57 54 52 50 48 45 42 40 39 38 37 36 34 32 30 28 27 27 28 27 27 26 28 28 28 27 27 25 25 25 24 23 21 19 19 18 18
63 61 59 56 54 51 48 45 44 43 41 39 39 38 36 33 31 29 29 30 31 33 32 32 32 30 30 30 28 28 27 28 27 25 24 24 23 21
69 65 62 60 56 53 51 49 47 46 45 43 42 42 39 36 34 33 34 31 37 35 34 36 35 33 32 31 31 31 30 30 29 29 28 28 27 26
69 69 66 64 60 58 56 52 51 50 49 47 44 43 40 38 36 37 35 39 40 40 38 38 38 37 34 33 33 32 33 32 31 32 31 31 30 30
68 68 66 64 62 60 58 56 54 52 50 51 47 45 43 41 39 38 41 40 43 40 39 36 37 37 34 34 34 34 35 34 34 34 33 34 33 33
63 63 62 62 59 57 55 54 52 51 50 50 49 47 46 42 44 46 42 44 43 42 37 37 38 37 36 36 37 37 37 36 36 35 35 36 36 36
60 60 57 57 56 55 54 53 51 50 50 51 50 48 48 46 50 42 42 46 42 42 40 39 41 39 38 36 38 38 37 37 37 37 37 38 39 39
63 60 58 56 53 53 52 52 52 51 51 52 51 55 59 53 46 48 48 47 46 42 42 42 41 41 40 38 38 38 38 38 38 39 40 41 41 42
71 70 69 65 60 61 59 58 56 54 58 57 54 53 48 49 51 50 50 50 47 44 43 45 45 45 43 41 41 41 41 42 42 41 42 44 45 45
79 79 76 74 71 67 67 69 65 61 58 59 59 60 59 57 55 53 50 51 49 47 45 48 47 47 46 43 44 44 45 46 46 46 47 47 47 48
80 78 78 73 72 70 69 65 63 66 64 64 64 63 62 62 58 56 52 51 52 50 51 50 51 52 51 50 45 46 47 50 50 50 51 51 51 52
68 71 73 79 78 77 75 73 71 69 68 69 66 65 64 63 61 59 56 56 54 58 61 58 54 55 56 54 52 52 52 52 54 55 55 55 55 54
76 69 68 71 74 75 76 75 75 72 74 71 72 71 68 66 66 64 61 60 61 63 62 62 62 62 63 64 62 60 58 59 60 59 54 55 58 59
69 77 77 79 71 75 79 77 77 73 71 71 70 70 70 73 69 67 65 67 65 64 65 64 64 61 65 61 58 60 64 65 64 62 61 63 63 63
74 70 74 83 81 80 80 78 76 78 79 76 73 75 75 72 71 69 66 63 70 73 66 66 67 66 63 66 66 61 61 63 63 61 65 65 65 64
71 75 77 81 79 73 78 82 80 82 79 78 75 74 71 72 74 73 75 70 67 73 74 71 70 68 68 68 69 71 69 71 70 68 68 72 70 73
75 78 78 79 78 77 78 75 75 74 72 70 70 68 67 74 72 70 70 68 70 66 65 69 70 75 76 76 77 74 72 71 69 70 73 71 71 75
87 85 81 80 80 76 75 76 73 71 68 69 72 72 65 68 66 65 57 49 46 48 54 63 66 64 60 56 62 70 76 75 75 75 72 70 69 71
83 85 82 80 86 85 81 76 74 73 70 69 70 69 69 68 65 62 62 60 58 58 55 55 58 59 60 61 60 59 63 67 70 72 69 69 71 76
79 77 78 78 79 79 78 78 75 76 78 76 76 71 72 75 72 72 75 74 72 67 60 60 62 65 66 65 65 66 67 68 70 69 68 73 77 75
Wind_Direction
221 225 225 226 227 228 230 234 238 245 250 257 256 253 253 255 251 247 250 252 253 259 267 270 274 275 277 277 278 277 282 290 301 314 320 336 349 341
224 226 227 227 229 231 232 236 240 247 253 257 253 253 253 255 252 251 250 251 254 259 264 270 275 279 278 272 271 273 274 277 282 291 298 310 314 329
225 226 229 229 231 233 235 239 242 248 252 255 252 251 252 254 253 253 252 253 256 259 264 270 273 275 275 273 269 269 272 272 275 277 284 292 297 300
226 227 229 232 233 235 237 241 244 249 253 253 250 252 251 253 253 252 251 252 256 262 268 271 272 271 271 273 272 267 266 270 271 272 275 281 286 290
225 228 229 232 235 237 239 242 245 249 253 250 249 251 250 251 251 253 254 257 262 266 269 271 273 272 271 270 269 268 264 266 269 272 272 273 278 283
224 228 230 233 235 237 240 242 245 249 250 246 247 249 249 251 252 254 255 256 263 270 272 273 273 271 269 268 268 267 267 265 266 269 270 271 274 278
226 229 231 233 235 238 241 243 246 247 247 246 246 248 250 253 252 253 256 261 269 273 269 268 271 270 270 269 268 268 267 266 266 268 270 271 271 273
227 229 231 233 235 238 240 242 244 244 246 248 244 246 250 251 251 254 256 259 271 267 267 268 269 270 271 270 269 268 266 265 265 268 268 268 270 272
225 228 230 233 235 237 239 240 241 244 246 248 248 249 253 252 251 252 253 263 264 265 266 266 268 267 268 267 267 266 265 265 267 268 268 269 270 271
224 225 227 232 234 236 237 240 241 243 246 249 251 252 251 256 259 255 253 261 262 265 264 263 264 266 267 265 267 267 266 266 267 268 269 271 272 273
221 224 226 228 233 236 237 240 240 242 247 251 254 257 257 255 252 257 260 261 262 262 262 263 265 266 266 265 266 268 268 269 268 269 270 271 272 274
224 225 225 227 230 235 237 240 242 245 249 254 256 254 253 250 251 253 256 260 262 263 264 261 262 263 266 264 266 268 268 268 270 270 270 271 273 276
230 229 231 232 234 236 241 242 245 243 246 250 253 256 258 258 257 256 257 260 260 261 261 260 261 265 267 266 265 268 270 270 270 271 271 272 273 275
234 237 235 233 232 233 238 240 244 249 251 252 253 255 256 260 259 261 257 255 257 256 259 260 262 265 267 267 264 266 267 269 271 272 272 273 275 276
232 234 238 237 236 236 235 239 245 246 249 253 252 253 255 256 257 255 256 255 254 257 259 260 261 263 263 266 268 266 266 268 269 273 272 272 274 276
232 234 234 231 239 234 236 240 244 248 252 254 253 253 255 253 255 255 258 255 258 258 260 261 262 260 261 265 266 268 269 269 273 274 273 276 275 272
227 232 239 234 229 239 242 242 246 248 253 255 251 252 256 254 253 256 254 259 256 257 264 265 267 269 268 269 267 267 269 269 272 269 270 275 278 271
228 232 233 230 235 243 245 245 251 246 249 250 254 256 256 254 254 251 254 261 257 258 264 264 264 269 271 272 272 270 269 269 270 271 274 275 275 272
228 231 233 236 236 239 241 239 241 247 247 250 252 253 254 255 256 259 255 260 259 261 263 264 265 269 273 273 271 273 271 275 272 271 275 275 271 273
242 229 227 230 231 232 235 235 237 239 241 241 245 249 247 250 255 258 260 258 257 259 257 261 262 264 266 269 272 270 269 269 272 274 279 276 273 274
255 253 245 235 226 229 225 224 228 232 232 236 238 239 240 246 249 250 247 248 252 255 261 260 261 257 261 267 267 269 267 268 271 271 271 270 271 274
254 257 257 258 260 258 258 247 242 239 236 234 234 233 234 234 237 243 248 259 264 264 265 262 259 260 266 269 278 273 271 273 272 269 266 268 271 275
245 248 253 254 257 258 258 263 266 267 266 263 254 241 241 239 243 259 269 272 275 275 270 270 273 278 278 272 274 271 272 271 267 267 271 273 276 274
Height
5792 5798 5805 5811 5817 5822 5827 5831 5835 5838 5840 5842 5845 5847 5849 5851 5853 5854 5855 5857 5858 5859 5860 5861 5862 5862 5863 5863 5863 5862 5861 5861 5860 5860 5858 5856 5855 5853
5783 5790 5797 5803 5809 5814 5820 5823 5828 5830 5834 5836 5838 5841 5843 5845 5847 5849 5850 5852 5853 5855 5856 5856 5857 5858 5858 5858 5858 5858 5858 5857 5857 5857 5855 5854 5853 5852
5773 5781 5787 5794 5800 5805 5812 5815 5820 5823 5826 5830 5832 5834 5837 5839 5842 5843 5845 5847 5848 5849 5850 5852 5851 5852 5852 5853 5853 5853 5853 5853 5853 5852 5852 5851 5850 5849
5763 5771 5778 5784 5791 5796 5802 5807 5811 5815 5819 5822 5824 5827 5830 5832 5835 5836 5839 5840 5842 5843 5845 5846 5845 5845 5846 5846 5847 5848 5848 5847 5847 5847 5848 5847 5846 5845
5751 5759 5767 5774 5780 5786 5792 5797 5802 5806 5810 5815 5817 5819 5823 5825 5828 5830 5832 5833 5834 5836 5838 5838 5838 5838 5839 5839 5839 5840 5841 5841 5841 5841 5842 5841 5841 5840
5740 5747 5754 5762 5769 5775 5781 5787 5792 5796 5800 5806 5808 5811 5814 5817 5820 5822 5823 5824 5826 5829 5830 5829 5830 5830 5831 5831 5832 5833 5833 5834 5834 5834 5834 5835 5834 5834
5729 5737 5744 5752 5758 5764 5770 5777 5781 5785 5789 5794 5799 5802 5805 5808 5811 5812 5815 5815 5819 5820 5819 5820 5822 5821 5822 5823 5824 5824 5825 5825 5826 5826 5827 5827 5827 5826
5717 5725 5732 5739 5746 5752 5758 5764 5770 5774 5779 5783 5789 5792 5795 5799 5801 5803 5804 5808 5809 5809 5809 5812 5812 5812 5813 5814 5814 5815 5816 5816 5816 5817 5817 5817 5817 5817
5705 5713 5720 5728 5735 5741 5747 5753 5759 5763 5768 5772 5777 5782 5785 5789 5789 5792 5796 5797 5798 5798 5802 5803 5803 5803 5804 5805 5805 5806 5806 5806 5807 5807 5808 5808 5808 5808
5693 5701 5708 5716 5723 5729 5735 5741 5747 5752 5756 5761 5765 5771 5774 5777 5779 5781 5783 5784 5788 5790 5791 5793 5792 5794 5794 5796 5796 5796 5797 5797 5797 5798 5798 5798 5798 5798
5679 5687 5695 5703 5710 5717 5723 5729 5734 5739 5743 5747 5751 5756 5761 5765 5767 5768 5771 5773 5775 5779 5781 5782 5784 5783 5784 5786 5786 5786 5786 5787 5787 5787 5787 5787 5787 5787
5665 5672 5679 5686 5694 5700 5708 5715 5721 5727 5732 5735 5739 5744 5747 5751 5754 5756 5757 5759 5764 5768 5770 5770 5771 5771 5772 5775 5775 5776 5776 5776 5776 5777 5777 5777 5776 5776
5650 5656 5664 5671 5679 5686 5692 5700 5707 5712 5716 5721 5725 5730 5733 5736 5739 5743 5747 5748 5751 5755 5757 5755 5758 5760 5760 5765 5765 5765 5764 5765 5765 5765 5765 5765 5765 5765
5632 5640 5648 5655 5662 5670 5676 5684 5691 5695 5700 5706 5711 5716 5719 5723 5726 5730 5733 5736 5736 5740 5740 5743 5745 5747 5749 5749 5754 5754 5752 5751 5753 5753 5752 5752 5752 5751
5615 5623 5631 5638 5646 5652 5659 5666 5672 5677 5683 5688 5694 5699 5704 5708 5710 5713 5716 5720 5722 5724 5728 5730 5732 5732 5733 5736 5739 5739 5739 5739 5739 5740 5738 5737 5737 5736
5600 5608 5614 5622 5626 5634 5642 5649 5655 5660 5664 5669 5676 5680 5685 5690 5693 5698 5701 5703 5706 5709 5712 5714 5717 5717 5718 5720 5720 5722 5724 5724 5724 5725 5723 5722 5722 5720
5583 5591 5597 5605 5609 5615 5624 5631 5637 5643 5647 5650 5655 5660 5665 5671 5676 5680 5683 5686 5689 5693 5697 5698 5699 5700 5700 5702 5704 5706 5706 5708 5708 5707 5707 5706 5703 5701
5565 5572 5579 5586 5593 5599 5606 5612 5619 5623 5628 5634 5639 5642 5645 5650 5656 5662 5665 5668 5671 5674 5677 5680 5680 5682 5682 5684 5687 5688 5688 5688 5689 5690 5689 5688 5686 5683
5544 5553 5562 5569 5574 5579 5586 5593 5599 5603 5610 5616 5622 5625 5628 5631 5635 5641 5647 5650 5652 5655 5657 5662 5663 5664 5663 5665 5668 5670 5670 5670 5669 5671 5669 5668 5667 5665
5526 5534 5542 5549 5556 5560 5567 5573 5579 5585 5590 5597 5602 5607 5611 5614 5618 5621 5624 5629 5632 5635 5638 5642 5645 5646 5647 5648 5648 5650 5649 5649 5650 5650 5650 5648 5646 5644
5506 5514 5520 5528 5534 5540 5547 5553 5559 5565 5571 5577 5582 5587 5592 5597 5601 5604 5607 5609 5612 5616 5619 5622 5625 5627 5629 5628 5628 5630 5631 5632 5631 5631 5630 5629 5628 5626
5484 5492 5500 5506 5514 5520 5527 5532 5539 5545 5550 5556 5562 5567 5572 5576 5581 5585 5588 5591 5594 5598 5600 5605 5607 5609 5610 5610 5610 5612 5612 5612 5612 5611 5610 5610 5609 5607
5464 5471 5478 5485 5492 5499 5506 5513 5518 5524 5530 5536 5540 5546 5551 5555 5559 5564 5567 5571 5574 5578 5582 5583 5585 5588 5589 5590 5592 5593 5593 5593 5592 5590 5589 5590 5589 5587